Darstellungsparameter: Aktuell verwendete Einstellungen:
Skalierung der Graphiken ... ?
xyx+y,   Skalierungsfaktor:      Skalierung: Modus: x, Faktor: 1
Darstellungszeitraum ... ?
Vom - - bis: - -   Zeitraum: 09.04.2020 - 22.04.2020
Min/Max/Avg-Anzeige ... ?
Zeige MMA aktuell
Zeige MMA Monat
Zeige MMA alles
Zeige --A aktuell
Zeige --A Monat
Zeige --A alles
Keine MMA-Anzeige
MMA:
Average (ber die Originaldaten)
MMA-Basis: 09.04.2020 - 22.04.2020
Quicknavigation für Darstellung... ?
Tage:      1T, 2T, 3T, 5T -1T -2T -3T -5T +1T +2T +3T +5T
Wochen: 1W, 2W, 3W -1W -2W -3W +1W +2W +3W
Monate: 1M, 3M, 6M -1M -3M -6M +1M +3M +6M
Jahre:    1J, 3J, 5J, 10J -1J -3J -5J -10J +1J +3J +5J +10J
Nutze für die Darstellung ... ?
Originaldaten oder ...
Mittelwerte Minima Maxima auf...
Stundenbasis Tagesbasis Wochenbasis
Monatsbasis Jahresbasis      Datenbasis: Mittelwerte auf Stundenbasis
Darstellen als:
Statistik (Auto) Statistik J:M      Darstellung:
Zur Graphik,    zurück zur Übersicht aller Sensoren.
 
Tabellarische Datenbersicht: ?
 
Sensor: Nr:Datum:Temp:Abs-Feuchte:Windchill:Wind:
Aussen-T/F 1 09-04-2020 00:00:00 11.4 C 6.99 g/m*3 11.4 C 0.93333 km/h
2 09-04-2020 01:00:00 10.33333 C 7.07 g/m*3 10.33 C 1.33333 km/h
3 09-04-2020 02:00:00 9.40833 C 7.01 g/m*3 9.41 C 0 km/h
4 09-04-2020 03:00:00 9.68333 C 7.16 g/m*3 9.68 C 2.275 km/h
5 09-04-2020 04:00:00 9.98333 C 7.35 g/m*3 9.98 C 3.075 km/h
6 09-04-2020 05:00:00 9.06667 C 7.14 g/m*3 9.07 C 0 km/h
7 09-04-2020 06:00:00 7.90833 C 6.89 g/m*3 7.91 C 0 km/h
8 09-04-2020 07:00:00 7.55833 C 6.94 g/m*3 7.56 C 0 km/h
9 09-04-2020 08:00:00 7.91667 C 7.22 g/m*3 7.92 C 0.13333 km/h
10 09-04-2020 09:00:00 9.25833 C 7.8 g/m*3 9.26 C 0 km/h
11 09-04-2020 10:00:00 11.775 C 8.55 g/m*3 11.78 C 0 km/h
12 09-04-2020 11:00:00 16.34167 C 8.89 g/m*3 16.34 C 0.4 km/h
13 09-04-2020 12:00:00 19.93333 C 8.94 g/m*3 19.93 C 2.13333 km/h
14 09-04-2020 13:00:00 21.825 C 8.34 g/m*3 21.83 C 5.63333 km/h
15 09-04-2020 14:00:00 23.09167 C 7.27 g/m*3 23.09 C 6.84167 km/h
16 09-04-2020 15:00:00 23.71667 C 7.32 g/m*3 23.72 C 11.425 km/h
17 09-04-2020 16:00:00 24.3 C 7.47 g/m*3 24.3 C 11.28333 km/h
18 09-04-2020 17:00:00 24.7 C 7.49 g/m*3 24.7 C 11.3 km/h
19 09-04-2020 18:00:00 24.00833 C 7.76 g/m*3 24.01 C 11.56667 km/h
20 09-04-2020 19:00:00 22.30833 C 8 g/m*3 22.31 C 7.53333 km/h
21 09-04-2020 20:00:00 18.3 C 8.42 g/m*3 18.3 C 3.06667 km/h
22 09-04-2020 21:00:00 15.94167 C 8.33 g/m*3 15.94 C 2.26667 km/h
23 09-04-2020 22:00:00 14.73333 C 8.27 g/m*3 14.73 C 3.46667 km/h
24 09-04-2020 23:00:00 13.50833 C 8.16 g/m*3 13.51 C 2.66667 km/h
25 10-04-2020 00:00:00 12.04167 C 8 g/m*3 12.04 C 2 km/h
Sensor: Nr:Datum:Temp:Abs-Feuchte:Windchill:Wind:
Aussen-T/F 26 10-04-2020 01:00:00 10.34167 C 7.72 g/m*3 10.34 C 0 km/h
27 10-04-2020 02:00:00 9.29167 C 7.48 g/m*3 9.29 C 0 km/h
28 10-04-2020 03:00:00 8.3 C 7.23 g/m*3 8.3 C 0 km/h
29 10-04-2020 04:00:00 7.45 C 7.02 g/m*3 7.45 C 0 km/h
30 10-04-2020 05:00:00 6.94167 C 6.93 g/m*3 6.94 C 0 km/h
31 10-04-2020 06:00:00 6.30833 C 6.75 g/m*3 6.31 C 0 km/h
32 10-04-2020 07:00:00 6.05 C 6.74 g/m*3 6.05 C 0.13333 km/h
33 10-04-2020 08:00:00 6.525 C 7.03 g/m*3 6.53 C 0 km/h
34 10-04-2020 09:00:00 7.91667 C 7.7 g/m*3 7.92 C 0 km/h
35 10-04-2020 10:00:00 10.53333 C 8.57 g/m*3 10.53 C 0.8 km/h
36 10-04-2020 11:00:00 15.09167 C 9.26 g/m*3 15.09 C 2 km/h
37 10-04-2020 12:00:00 18.73333 C 8.33 g/m*3 18.73 C 6.575 km/h
38 10-04-2020 13:00:00 20.01667 C 7.8 g/m*3 20.02 C 8.73333 km/h
39 10-04-2020 14:00:00 21.06667 C 7.51 g/m*3 21.07 C 7.38333 km/h
40 10-04-2020 15:00:00 21.975 C 6.93 g/m*3 21.98 C 6.84167 km/h
41 10-04-2020 16:00:00 23.04167 C 7.55 g/m*3 23.04 C 8.06667 km/h
42 10-04-2020 17:00:00 24 C 7.36 g/m*3 24 C 9.41667 km/h
43 10-04-2020 18:00:00 23.1 C 7.36 g/m*3 23.1 C 10.9 km/h
44 10-04-2020 19:00:00 21.46667 C 7.23 g/m*3 21.47 C 10.76667 km/h
45 10-04-2020 20:00:00 17.7 C 7.72 g/m*3 17.7 C 2.4 km/h
46 10-04-2020 21:00:00 14.525 C 7.54 g/m*3 14.53 C 2.66667 km/h
47 10-04-2020 22:00:00 14.05 C 7.71 g/m*3 14.05 C 2 km/h
48 10-04-2020 23:00:00 12.80833 C 7.4 g/m*3 12.81 C 2.66667 km/h
49 11-04-2020 00:00:00 11.16667 C 7.24 g/m*3 11.17 C 2.4 km/h
50 11-04-2020 01:00:00 10 C 6.87 g/m*3 10 C 0.13333 km/h
Sensor: Nr:Datum:Temp:Abs-Feuchte:Windchill:Wind:
Aussen-T/F 51 11-04-2020 02:00:00 8.975 C 6.52 g/m*3 8.98 C 1.73333 km/h
52 11-04-2020 03:00:00 8.5 C 6.08 g/m*3 8.5 C 3.86667 km/h
53 11-04-2020 04:00:00 7.86667 C 5.72 g/m*3 7.87 C 4.26667 km/h
54 11-04-2020 05:00:00 7.06667 C 5.47 g/m*3 7.07 C 2.53333 km/h
55 11-04-2020 06:00:00 5.80833 C 5.43 g/m*3 5.81 C 0 km/h
56 11-04-2020 07:00:00 5.225 C 5.4 g/m*3 5.23 C 0 km/h
57 11-04-2020 08:00:00 5.8 C 5.54 g/m*3 5.8 C 0.8 km/h
58 11-04-2020 09:00:00 7.31667 C 5.82 g/m*3 7.32 C 0.66667 km/h
59 11-04-2020 10:00:00 10.08333 C 6.12 g/m*3 10.08 C 1.6 km/h
60 11-04-2020 11:00:00 14.15833 C 6.11 g/m*3 14.16 C 0.93333 km/h
61 11-04-2020 12:00:00 18.01667 C 6.09 g/m*3 18.02 C 6.725 km/h
62 11-04-2020 13:00:00 19.75833 C 6.13 g/m*3 19.76 C 10.89167 km/h
63 11-04-2020 14:00:00 21.23333 C 6.67 g/m*3 21.23 C 9.15833 km/h
64 11-04-2020 15:00:00 22.14167 C 6.85 g/m*3 22.14 C 8.325 km/h
65 11-04-2020 16:00:00 23.375 C 7.28 g/m*3 23.38 C 4.675 km/h
66 11-04-2020 17:00:00 24.39167 C 7.23 g/m*3 24.39 C 8.6 km/h
67 11-04-2020 18:00:00 24.025 C 7.17 g/m*3 24.03 C 7.26667 km/h
68 11-04-2020 19:00:00 22.83333 C 7.5 g/m*3 22.83 C 3.86667 km/h
69 11-04-2020 20:00:00 17.31667 C 7.62 g/m*3 17.32 C 5.06667 km/h
70 11-04-2020 21:00:00 15.18333 C 7.35 g/m*3 15.18 C 5.6 km/h
71 11-04-2020 22:00:00 14.175 C 7.52 g/m*3 14.18 C 3.2 km/h
72 11-04-2020 23:00:00 13.15833 C 7.51 g/m*3 13.16 C 0.4 km/h
73 12-04-2020 00:00:00 11.83333 C 7.41 g/m*3 11.83 C 0 km/h
74 12-04-2020 01:00:00 11.01667 C 7.11 g/m*3 11.02 C 0 km/h
75 12-04-2020 02:00:00 10.75 C 7.26 g/m*3 10.75 C 0 km/h
Sensor: Nr:Datum:Temp:Abs-Feuchte:Windchill:Wind:
Aussen-T/F 76 12-04-2020 03:00:00 10.375 C 7.35 g/m*3 10.38 C 0 km/h
77 12-04-2020 04:00:00 9.7 C 7.23 g/m*3 9.7 C 0.66667 km/h
78 12-04-2020 05:00:00 8.675 C 7.09 g/m*3 8.68 C 0 km/h
79 12-04-2020 06:00:00 7.925 C 6.99 g/m*3 7.93 C 0.8 km/h
80 12-04-2020 07:00:00 7.38333 C 6.94 g/m*3 7.38 C 0 km/h
81 12-04-2020 08:00:00 8.00833 C 7.34 g/m*3 8.01 C 0.13333 km/h
82 12-04-2020 09:00:00 9.375 C 8.01 g/m*3 9.38 C 0.53333 km/h
83 12-04-2020 10:00:00 12.29167 C 8.95 g/m*3 12.29 C 0.8 km/h
84 12-04-2020 11:00:00 16.63333 C 9.45 g/m*3 16.63 C 2.13333 km/h
85 12-04-2020 12:00:00 20.175 C 8.56 g/m*3 20.18 C 6.15 km/h
86 12-04-2020 13:00:00 21.58333 C 6.9 g/m*3 21.58 C 11.43333 km/h
87 12-04-2020 14:00:00 22.41667 C 6.38 g/m*3 22.42 C 11.15 km/h
88 12-04-2020 15:00:00 23.375 C 6.16 g/m*3 23.38 C 11.28333 km/h
89 12-04-2020 16:00:00 23.85 C 6.33 g/m*3 23.85 C 7.125 km/h
90 12-04-2020 17:00:00 24.33333 C 6.28 g/m*3 24.33 C 7.25 km/h
91 12-04-2020 18:00:00 24.49167 C 6.06 g/m*3 24.49 C 6.56667 km/h
92 12-04-2020 19:00:00 22.625 C 6.54 g/m*3 22.63 C 4.68333 km/h
93 12-04-2020 20:00:00 17.7 C 6.93 g/m*3 17.7 C 6.275 km/h
94 12-04-2020 21:00:00 14.60833 C 7.13 g/m*3 14.61 C 2 km/h
95 12-04-2020 22:00:00 13.06667 C 6.99 g/m*3 13.07 C 0.13333 km/h
96 12-04-2020 23:00:00 11.45 C 6.86 g/m*3 11.45 C 0.26667 km/h
97 13-04-2020 00:00:00 10.64167 C 7.03 g/m*3 10.64 C 0 km/h
98 13-04-2020 01:00:00 9.74167 C 6.96 g/m*3 9.74 C 0.4 km/h
99 13-04-2020 02:00:00 9.38333 C 6.92 g/m*3 9.38 C 2.26667 km/h
100 13-04-2020 03:00:00 8.675 C 6.87 g/m*3 8.68 C 1.6 km/h
Sensor: Nr:Datum:Temp:Abs-Feuchte:Windchill:Wind:
Aussen-T/F 101 13-04-2020 04:00:00 7.66667 C 6.76 g/m*3 7.67 C 1.06667 km/h
102 13-04-2020 05:00:00 7.55 C 6.9 g/m*3 7.55 C 1.33333 km/h
103 13-04-2020 06:00:00 7.31667 C 6.77 g/m*3 7.32 C 0 km/h
104 13-04-2020 07:00:00 7.56667 C 7.02 g/m*3 7.57 C 1.06667 km/h
105 13-04-2020 08:00:00 9.325 C 7.73 g/m*3 9.32 C 4.40833 km/h
106 13-04-2020 09:00:00 11.49167 C 8.63 g/m*3 11.49 C 10.75833 km/h
107 13-04-2020 10:00:00 11.25 C 8.01 g/m*3 11.25 C 10.5 km/h
108 13-04-2020 11:00:00 11.18333 C 7.48 g/m*3 11.18 C 14.76667 km/h
109 13-04-2020 12:00:00 10.36667 C 7.31 g/m*3 8.08 C 17.56667 km/h
110 13-04-2020 13:00:00 9.525 C 7.19 g/m*3 6.89 C 18.9 km/h
111 13-04-2020 14:00:00 8.55833 C 7.08 g/m*3 6.87 C 10.21667 km/h
112 13-04-2020 15:00:00 10.56667 C 6.1 g/m*3 8.52 C 15.83333 km/h
113 13-04-2020 16:00:00 11.425 C 5.11 g/m*3 11.43 C 17.96667 km/h
114 13-04-2020 17:00:00 12.55 C 4.8 g/m*3 12.55 C 16.63333 km/h
115 13-04-2020 18:00:00 12.51667 C 4.42 g/m*3 12.52 C 16.63333 km/h
116 13-04-2020 19:00:00 10.925 C 4.21 g/m*3 9.02 C 15.3 km/h
117 13-04-2020 20:00:00 9.14167 C 4.06 g/m*3 7.45 C 10.9 km/h
118 13-04-2020 21:00:00 7.91667 C 3.98 g/m*3 6.51 C 8.20833 km/h
119 13-04-2020 22:00:00 6.05833 C 4.21 g/m*3 6.06 C 2.4 km/h
120 13-04-2020 23:00:00 4.29167 C 4.25 g/m*3 4.29 C 3.475 km/h
121 14-04-2020 00:00:00 4.05833 C 4.15 g/m*3 4.06 C 2.94167 km/h
122 14-04-2020 01:00:00 3.55 C 4.15 g/m*3 3.55 C 2.26667 km/h
123 14-04-2020 02:00:00 2.05 C 4.15 g/m*3 2.05 C 0.66667 km/h
124 14-04-2020 03:00:00 1.48333 C 4.14 g/m*3 1.48 C 2.4 km/h
125 14-04-2020 04:00:00 1.16667 C 4.11 g/m*3 1.17 C 2.4 km/h
Sensor: Nr:Datum:Temp:Abs-Feuchte:Windchill:Wind:
Aussen-T/F 126 14-04-2020 05:00:00 0.775 C 4.14 g/m*3 0.78 C 1.73333 km/h
127 14-04-2020 06:00:00 0.41667 C 4.18 g/m*3 0.42 C 0.53333 km/h
128 14-04-2020 07:00:00 1.325 C 4.49 g/m*3 1.33 C 0 km/h
129 14-04-2020 08:00:00 2.54167 C 4.77 g/m*3 2.54 C 0.8 km/h
130 14-04-2020 09:00:00 4.325 C 5.02 g/m*3 4.33 C 2 km/h
131 14-04-2020 10:00:00 6.44167 C 4.99 g/m*3 5.21 C 6.56667 km/h
132 14-04-2020 11:00:00 7.76667 C 4.54 g/m*3 5.38 C 13.43333 km/h
133 14-04-2020 12:00:00 8.19167 C 4.54 g/m*3 6.38 C 10.475 km/h
134 14-04-2020 13:00:00 9.03333 C 4.62 g/m*3 7.69 C 8.88333 km/h
135 14-04-2020 14:00:00 9.88333 C 4.58 g/m*3 8.69 C 8.89167 km/h
136 14-04-2020 15:00:00 10.85 C 4.59 g/m*3 9.7 C 9.68333 km/h
137 14-04-2020 16:00:00 11.825 C 4.7 g/m*3 11.83 C 10.35 km/h
138 14-04-2020 17:00:00 12.29167 C 4.63 g/m*3 12.29 C 10.21667 km/h
139 14-04-2020 18:00:00 12.79167 C 4.65 g/m*3 12.79 C 9.825 km/h
140 14-04-2020 19:00:00 11.43333 C 4.59 g/m*3 11.43 C 7.78333 km/h
141 14-04-2020 20:00:00 8.83333 C 4.85 g/m*3 8.83 C 4.4 km/h
142 14-04-2020 21:00:00 6.10833 C 4.9 g/m*3 6.11 C 4.93333 km/h
143 14-04-2020 22:00:00 5.36667 C 4.9 g/m*3 5.37 C 2 km/h
144 14-04-2020 23:00:00 4.175 C 4.85 g/m*3 4.18 C 0.66667 km/h
145 15-04-2020 00:00:00 2.9 C 4.72 g/m*3 2.9 C 0 km/h
146 15-04-2020 01:00:00 2.075 C 4.64 g/m*3 2.08 C 0 km/h
147 15-04-2020 02:00:00 1.41667 C 4.56 g/m*3 1.42 C 0 km/h
148 15-04-2020 03:00:00 0.85 C 4.49 g/m*3 0.85 C 0 km/h
149 15-04-2020 04:00:00 0.53333 C 4.46 g/m*3 0.53 C 0 km/h
150 15-04-2020 05:00:00 0.325 C 4.46 g/m*3 0.33 C 0 km/h
Sensor: Nr:Datum:Temp:Abs-Feuchte:Windchill:Wind:
Aussen-T/F 151 15-04-2020 06:00:00 0.1 C 4.42 g/m*3 0.1 C 0 km/h
152 15-04-2020 07:00:00 0.21667 C 4.51 g/m*3 0.22 C 0.26667 km/h
153 15-04-2020 08:00:00 1.48333 C 4.87 g/m*3 1.48 C 0.53333 km/h
154 15-04-2020 09:00:00 3.29167 C 5.13 g/m*3 3.29 C 0 km/h
155 15-04-2020 10:00:00 5.81667 C 5.52 g/m*3 5.82 C 0.26667 km/h
156 15-04-2020 11:00:00 9.31667 C 5.73 g/m*3 9.32 C 4.15 km/h
157 15-04-2020 12:00:00 12.63333 C 5.19 g/m*3 12.63 C 5.775 km/h
158 15-04-2020 13:00:00 13.91667 C 5.21 g/m*3 13.92 C 8.875 km/h
159 15-04-2020 14:00:00 15.54167 C 5.18 g/m*3 15.54 C 7.8 km/h
160 15-04-2020 15:00:00 17.1 C 5.41 g/m*3 17.1 C 9.4 km/h
161 15-04-2020 16:00:00 18.90833 C 5.52 g/m*3 18.91 C 7.125 km/h
162 15-04-2020 17:00:00 20.475 C 5.58 g/m*3 20.48 C 8.2 km/h
163 15-04-2020 18:00:00 20.275 C 5.71 g/m*3 20.27 C 8.325 km/h
164 15-04-2020 19:00:00 19.18333 C 5.74 g/m*3 19.18 C 4.54167 km/h
165 15-04-2020 20:00:00 13.96667 C 5.95 g/m*3 13.97 C 5.6 km/h
166 15-04-2020 21:00:00 11.1 C 5.96 g/m*3 11.1 C 3.46667 km/h
167 15-04-2020 22:00:00 9.10833 C 5.96 g/m*3 9.11 C 0.66667 km/h
168 15-04-2020 23:00:00 7.63333 C 5.73 g/m*3 7.63 C 0 km/h
169 16-04-2020 00:00:00 6.51667 C 5.67 g/m*3 6.52 C 0.26667 km/h
170 16-04-2020 01:00:00 5.7 C 5.57 g/m*3 5.7 C 0 km/h
171 16-04-2020 02:00:00 4.9 C 5.49 g/m*3 4.9 C 0 km/h
172 16-04-2020 03:00:00 4.05833 C 5.38 g/m*3 4.06 C 0 km/h
173 16-04-2020 04:00:00 3.61667 C 5.34 g/m*3 3.62 C 0.26667 km/h
174 16-04-2020 05:00:00 3.14167 C 5.28 g/m*3 3.14 C 0.13333 km/h
175 16-04-2020 06:00:00 2.625 C 5.17 g/m*3 2.63 C 0.13333 km/h
Sensor: Nr:Datum:Temp:Abs-Feuchte:Windchill:Wind:
Aussen-T/F 176 16-04-2020 07:00:00 2.58333 C 5.25 g/m*3 2.58 C 0 km/h
177 16-04-2020 08:00:00 3.31667 C 5.56 g/m*3 3.32 C 0.26667 km/h
178 16-04-2020 09:00:00 4.80833 C 6.05 g/m*3 4.81 C 0.4 km/h
179 16-04-2020 10:00:00 8.1 C 6.84 g/m*3 8.1 C 0.26667 km/h
180 16-04-2020 11:00:00 14.74167 C 7.34 g/m*3 14.74 C 8.075 km/h
181 16-04-2020 12:00:00 18.85833 C 7.33 g/m*3 18.86 C 12.23333 km/h
182 16-04-2020 13:00:00 20.64167 C 7.19 g/m*3 20.64 C 11.16667 km/h
183 16-04-2020 14:00:00 21.975 C 6.99 g/m*3 21.98 C 9.80833 km/h
184 16-04-2020 15:00:00 23.25 C 7.35 g/m*3 23.25 C 12.76667 km/h
185 16-04-2020 16:00:00 24.3 C 7.39 g/m*3 24.3 C 13.3 km/h
186 16-04-2020 17:00:00 24.23333 C 7.92 g/m*3 24.23 C 12.1 km/h
187 16-04-2020 18:00:00 24.75 C 7.91 g/m*3 24.75 C 12.9 km/h
188 16-04-2020 19:00:00 22.9 C 8.06 g/m*3 22.9 C 7.66667 km/h
189 16-04-2020 20:00:00 19.45833 C 7.8 g/m*3 19.46 C 7.93333 km/h
190 16-04-2020 21:00:00 16.75833 C 7.86 g/m*3 16.76 C 3.34167 km/h
191 16-04-2020 22:00:00 14.275 C 7.96 g/m*3 14.28 C 2.93333 km/h
192 16-04-2020 23:00:00 12.48333 C 7.93 g/m*3 12.48 C 0.66667 km/h
193 17-04-2020 00:00:00 11.40833 C 7.8 g/m*3 11.41 C 0.26667 km/h
194 17-04-2020 01:00:00 10.48333 C 7.72 g/m*3 10.48 C 0.93333 km/h
195 17-04-2020 02:00:00 9.85833 C 7.63 g/m*3 9.86 C 0.66667 km/h
196 17-04-2020 03:00:00 8.51667 C 7.41 g/m*3 8.52 C 1.06667 km/h
197 17-04-2020 04:00:00 8.41667 C 7.48 g/m*3 8.42 C 0.66667 km/h
198 17-04-2020 05:00:00 7.63333 C 7.17 g/m*3 7.63 C 0.13333 km/h
199 17-04-2020 06:00:00 6.81667 C 6.99 g/m*3 6.82 C 0 km/h
200 17-04-2020 07:00:00 6.73333 C 7.06 g/m*3 6.73 C 0 km/h
Sensor: Nr:Datum:Temp:Abs-Feuchte:Windchill:Wind:
Aussen-T/F 201 17-04-2020 08:00:00 7.375 C 7.46 g/m*3 7.38 C 0 km/h
202 17-04-2020 09:00:00 8.95833 C 8.25 g/m*3 8.96 C 0 km/h
203 17-04-2020 10:00:00 11.325 C 9.06 g/m*3 11.33 C 0 km/h
204 17-04-2020 11:00:00 15.38333 C 9.52 g/m*3 15.38 C 1.06667 km/h
205 17-04-2020 12:00:00 18.95833 C 9.28 g/m*3 18.96 C 2.66667 km/h
206 17-04-2020 13:00:00 20.8 C 9.1 g/m*3 20.8 C 4.80833 km/h
207 17-04-2020 14:00:00 22.30833 C 9.38 g/m*3 22.31 C 5.75833 km/h
208 17-04-2020 15:00:00 23.375 C 9.26 g/m*3 23.38 C 8.59167 km/h
209 17-04-2020 16:00:00 24.18333 C 9.21 g/m*3 24.18 C 7.525 km/h
210 17-04-2020 17:00:00 25.4 C 8.97 g/m*3 25.4 C 6.99167 km/h
211 17-04-2020 18:00:00 25.85 C 9.48 g/m*3 25.85 C 3.6 km/h
212 17-04-2020 19:00:00 24.36667 C 10.48 g/m*3 24.37 C 3.86667 km/h
213 17-04-2020 20:00:00 19.575 C 9.95 g/m*3 19.58 C 4.93333 km/h
214 17-04-2020 21:00:00 17.50833 C 9.83 g/m*3 17.51 C 4.4 km/h
215 17-04-2020 22:00:00 15.94167 C 9.47 g/m*3 15.94 C 2.4 km/h
216 17-04-2020 23:00:00 14.55 C 9.33 g/m*3 14.55 C 0.93333 km/h
217 18-04-2020 00:00:00 13.10833 C 8.9 g/m*3 13.11 C 0.26667 km/h
218 18-04-2020 01:00:00 11.925 C 8.45 g/m*3 11.93 C 0 km/h
219 18-04-2020 02:00:00 11.00833 C 8.32 g/m*3 11.01 C 0 km/h
220 18-04-2020 03:00:00 9.95833 C 8.06 g/m*3 9.96 C 0 km/h
221 18-04-2020 04:00:00 9.38333 C 8 g/m*3 9.38 C 0 km/h
222 18-04-2020 05:00:00 9.05 C 7.9 g/m*3 9.05 C 0 km/h
223 18-04-2020 06:00:00 8.84167 C 7.87 g/m*3 8.84 C 0 km/h
224 18-04-2020 07:00:00 9.40833 C 8.32 g/m*3 9.41 C 0.66667 km/h
225 18-04-2020 08:00:00 10.325 C 8.8 g/m*3 10.33 C 0.13333 km/h
Sensor: Nr:Datum:Temp:Abs-Feuchte:Windchill:Wind:
Aussen-T/F 226 18-04-2020 09:00:00 12.14167 C 9.47 g/m*3 12.14 C 2.26667 km/h
227 18-04-2020 10:00:00 15.03333 C 9.99 g/m*3 15.03 C 3.875 km/h
228 18-04-2020 11:00:00 16.93333 C 10.39 g/m*3 16.93 C 2.13333 km/h
229 18-04-2020 12:00:00 18.275 C 10.63 g/m*3 18.27 C 0.8 km/h
230 18-04-2020 13:00:00 19.65833 C 10.49 g/m*3 19.66 C 3.475 km/h
231 18-04-2020 14:00:00 20.63333 C 10.76 g/m*3 20.63 C 4.41667 km/h
232 18-04-2020 15:00:00 21.25 C 10.83 g/m*3 21.25 C 10.34167 km/h
233 18-04-2020 16:00:00 19.825 C 11.38 g/m*3 19.83 C 12.88333 km/h
234 18-04-2020 17:00:00 18.4 C 12.18 g/m*3 18.4 C 2.275 km/h
235 18-04-2020 18:00:00 17.45 C 11.89 g/m*3 17.45 C 3.89167 km/h
236 18-04-2020 19:00:00 17.74167 C 11.09 g/m*3 17.74 C 7.79167 km/h
237 18-04-2020 20:00:00 16.5 C 10.58 g/m*3 16.5 C 2.275 km/h
238 18-04-2020 21:00:00 14.95833 C 10.55 g/m*3 14.96 C 0.8 km/h
239 18-04-2020 22:00:00 14.10833 C 10.23 g/m*3 14.11 C 2.8 km/h
240 18-04-2020 23:00:00 12.58333 C 9.73 g/m*3 12.58 C 2.26667 km/h
241 19-04-2020 00:00:00 11.13333 C 9.18 g/m*3 11.13 C 0.13333 km/h
242 19-04-2020 01:00:00 10.325 C 8.93 g/m*3 10.33 C 0.13333 km/h
243 19-04-2020 02:00:00 10.125 C 8.91 g/m*3 10.13 C 0.53333 km/h
244 19-04-2020 03:00:00 9.65833 C 8.65 g/m*3 9.66 C 0.8 km/h
245 19-04-2020 04:00:00 9.5 C 8.69 g/m*3 9.5 C 0.93333 km/h
246 19-04-2020 05:00:00 9.89167 C 8.96 g/m*3 9.89 C 1.06667 km/h
247 19-04-2020 06:00:00 10.15833 C 9.11 g/m*3 10.16 C 0.13333 km/h
248 19-04-2020 07:00:00 10.40833 C 9.26 g/m*3 10.41 C 0 km/h
249 19-04-2020 08:00:00 11.18333 C 9.72 g/m*3 11.18 C 1.06667 km/h
250 19-04-2020 09:00:00 12.53333 C 10.16 g/m*3 12.53 C 0.93333 km/h
Sensor: Nr:Datum:Temp:Abs-Feuchte:Windchill:Wind:
Aussen-T/F 251 19-04-2020 10:00:00 13.93333 C 10.24 g/m*3 13.93 C 1.2 km/h
252 19-04-2020 11:00:00 14.25833 C 10.1 g/m*3 14.26 C 6.425 km/h
253 19-04-2020 12:00:00 14.40833 C 9.96 g/m*3 14.41 C 5.88333 km/h
254 19-04-2020 13:00:00 16.3 C 10.04 g/m*3 16.3 C 6.16667 km/h
255 19-04-2020 14:00:00 17.04167 C 9.92 g/m*3 17.04 C 10.88333 km/h
256 19-04-2020 15:00:00 16.43333 C 9.22 g/m*3 16.43 C 9.81667 km/h
257 19-04-2020 16:00:00 17.53333 C 9.09 g/m*3 17.53 C 13.7 km/h
258 19-04-2020 17:00:00 17.4 C 8.6 g/m*3 17.4 C 20.5 km/h
259 19-04-2020 18:00:00 17.28333 C 7.91 g/m*3 17.28 C 15.975 km/h
260 19-04-2020 19:00:00 16.63333 C 7.31 g/m*3 16.63 C 7.90833 km/h
261 19-04-2020 20:00:00 13.9 C 7.41 g/m*3 13.9 C 0.8 km/h
262 19-04-2020 21:00:00 11.775 C 7.08 g/m*3 11.78 C 0 km/h
263 19-04-2020 22:00:00 11.125 C 6.52 g/m*3 11.13 C 1.06667 km/h
264 19-04-2020 23:00:00 10.64167 C 5.96 g/m*3 10.64 C 3.34167 km/h
265 20-04-2020 00:00:00 10.3 C 5.6 g/m*3 10.3 C 2.66667 km/h
266 20-04-2020 01:00:00 9.81667 C 5.38 g/m*3 9.82 C 4.41667 km/h
267 20-04-2020 02:00:00 8.10833 C 5.4 g/m*3 8.11 C 0.93333 km/h
268 20-04-2020 03:00:00 7.21667 C 5.35 g/m*3 7.22 C 1.33333 km/h
269 20-04-2020 04:00:00 6.60833 C 5.29 g/m*3 6.61 C 1.46667 km/h
270 20-04-2020 05:00:00 6.575 C 5.29 g/m*3 6.58 C 1.6 km/h
271 20-04-2020 06:00:00 6.36667 C 5.28 g/m*3 6.37 C 1.6 km/h
272 20-04-2020 07:00:00 6.90833 C 5.29 g/m*3 6.91 C 3.475 km/h
273 20-04-2020 08:00:00 8.33333 C 5.35 g/m*3 7.59 C 5.88333 km/h
274 20-04-2020 09:00:00 9.20833 C 5.58 g/m*3 8.51 C 6.18333 km/h
275 20-04-2020 10:00:00 11.50833 C 5.62 g/m*3 11.51 C 10.09167 km/h
Sensor: Nr:Datum:Temp:Abs-Feuchte:Windchill:Wind:
Aussen-T/F 276 20-04-2020 11:00:00 14.16667 C 5.43 g/m*3 14.17 C 15.96667 km/h
277 20-04-2020 12:00:00 15.05833 C 5.16 g/m*3 15.06 C 16.50833 km/h
278 20-04-2020 13:00:00 16.025 C 5.17 g/m*3 16.02 C 13.95833 km/h
279 20-04-2020 14:00:00 17.26667 C 5.11 g/m*3 17.27 C 17.83333 km/h
280 20-04-2020 15:00:00 18.40833 C 5.04 g/m*3 18.41 C 16.63333 km/h
281 20-04-2020 16:00:00 19.5 C 5.13 g/m*3 19.5 C 19.71667 km/h
282 20-04-2020 17:00:00 19.83333 C 5.49 g/m*3 19.83 C 20.50833 km/h
283 20-04-2020 18:00:00 18.66667 C 5.83 g/m*3 18.67 C 21.31667 km/h
284 20-04-2020 19:00:00 17.61667 C 5.44 g/m*3 17.62 C 16.375 km/h
285 20-04-2020 20:00:00 15.35 C 5.27 g/m*3 15.35 C 9.78333 km/h
286 20-04-2020 21:00:00 13.21667 C 5.11 g/m*3 13.22 C 5.225 km/h
287 20-04-2020 22:00:00 12.40833 C 5.04 g/m*3 12.41 C 5.76667 km/h
288 20-04-2020 23:00:00 11.69167 C 4.83 g/m*3 11.69 C 5.9 km/h
289 21-04-2020 00:00:00 10.975 C 4.83 g/m*3 10.58 C 6.03333 km/h
290 21-04-2020 01:00:00 9.35833 C 4.99 g/m*3 9.36 C 2.40833 km/h
291 21-04-2020 02:00:00 9.41667 C 4.96 g/m*3 8.94 C 5.49167 km/h
292 21-04-2020 03:00:00 9.54167 C 5 g/m*3 9.01 C 5.76667 km/h
293 21-04-2020 04:00:00 8.425 C 5.13 g/m*3 8.43 C 4.15 km/h
294 21-04-2020 05:00:00 7.825 C 5.2 g/m*3 7.83 C 2.80833 km/h
295 21-04-2020 06:00:00 7.01667 C 5.26 g/m*3 7.02 C 2.13333 km/h
296 21-04-2020 07:00:00 6.96667 C 5.34 g/m*3 6.97 C 2.14167 km/h
297 21-04-2020 08:00:00 8.04167 C 5.47 g/m*3 7.37 C 5.49167 km/h
298 21-04-2020 09:00:00 10.08333 C 5.45 g/m*3 8.99 C 8.59167 km/h
299 21-04-2020 10:00:00 12.33333 C 5.33 g/m*3 12.33 C 12.48333 km/h
300 21-04-2020 11:00:00 14.51667 C 5.28 g/m*3 14.52 C 14.76667 km/h
Sensor: Nr:Datum:Temp:Abs-Feuchte:Windchill:Wind:
Aussen-T/F 301 21-04-2020 12:00:00 16.14167 C 5.2 g/m*3 16.14 C 16.9 km/h
302 21-04-2020 13:00:00 17.4 C 5.21 g/m*3 17.4 C 16.9 km/h
303 21-04-2020 14:00:00 18.95833 C 5.27 g/m*3 18.96 C 19.56667 km/h
304 21-04-2020 15:00:00 20.21667 C 5.37 g/m*3 20.22 C 24.275 km/h
305 21-04-2020 16:00:00 20.80833 C 5.48 g/m*3 20.81 C 25.60833 km/h
306 21-04-2020 17:00:00 21.14167 C 5.66 g/m*3 21.14 C 20.65 km/h
307 21-04-2020 18:00:00 20.84167 C 5.82 g/m*3 20.84 C 16.64167 km/h
308 21-04-2020 19:00:00 19.58333 C 5.89 g/m*3 19.58 C 15.96667 km/h
309 21-04-2020 20:00:00 17.18333 C 5.96 g/m*3 17.18 C 5.9 km/h
310 21-04-2020 21:00:00 14.54167 C 5.97 g/m*3 14.54 C 2.4 km/h
311 21-04-2020 22:00:00 13.075 C 6.05 g/m*3 13.08 C 2.66667 km/h
312 21-04-2020 23:00:00 11.90833 C 6.04 g/m*3 11.91 C 1.86667 km/h
313 22-04-2020 00:00:00 11.28333 C 5.94 g/m*3 11.28 C 2.93333 km/h
314 22-04-2020 01:00:00 10.53333 C 5.95 g/m*3 10.53 C 2.14167 km/h
315 22-04-2020 02:00:00 9.98333 C 5.92 g/m*3 9.98 C 2.93333 km/h
316 22-04-2020 03:00:00 9.25833 C 5.89 g/m*3 9.26 C 0.93333 km/h
317 22-04-2020 04:00:00 8.41667 C 5.78 g/m*3 8.42 C 0.8 km/h
318 22-04-2020 05:00:00 7.49167 C 5.71 g/m*3 7.49 C 1.06667 km/h
319 22-04-2020 06:00:00 6.575 C 5.65 g/m*3 6.58 C 1.46667 km/h
320 22-04-2020 07:00:00 6.19167 C 5.83 g/m*3 6.19 C 2.53333 km/h
321 22-04-2020 08:00:00 7.35833 C 6.05 g/m*3 7.36 C 3.75 km/h
322 22-04-2020 09:00:00 10.36667 C 6.02 g/m*3 10.03 C 5.49167 km/h
323 22-04-2020 10:00:00 13.09167 C 5.88 g/m*3 13.09 C 8.06667 km/h
324 22-04-2020 11:00:00 15.875 C 5.68 g/m*3 15.88 C 11.15 km/h
325 22-04-2020 12:00:00 17.65 C 5.35 g/m*3 17.65 C 16.9 km/h
Sensor: Nr:Datum:Temp:Abs-Feuchte:Windchill:Wind:
Aussen-T/F 326 22-04-2020 13:00:00 18.93333 C 5.55 g/m*3 18.93 C 12.63333 km/h
327 22-04-2020 14:00:00 20.18333 C 5.74 g/m*3 20.18 C 14.23333 km/h
328 22-04-2020 15:00:00 21.40833 C 5.75 g/m*3 21.41 C 15.56667 km/h
329 22-04-2020 16:00:00 22.575 C 5.77 g/m*3 22.58 C 17.3 km/h
330 22-04-2020 17:00:00 22.65833 C 5.69 g/m*3 22.66 C 20.11667 km/h
331 22-04-2020 18:00:00 22.38333 C 5.59 g/m*3 22.38 C 18.50833 km/h
332 22-04-2020 19:00:00 21.275 C 5.58 g/m*3 21.28 C 12.09167 km/h
333 22-04-2020 20:00:00 18.38333 C 6.04 g/m*3 18.38 C 2.94167 km/h
334 22-04-2020 21:00:00 14.96667 C 6.03 g/m*3 14.97 C 1.46667 km/h
335 22-04-2020 22:00:00 13.81667 C 6.08 g/m*3 13.82 C 2.4 km/h
336 22-04-2020 23:00:00 13.74167 C 6.1 g/m*3 13.74 C 3.33333 km/h

Maximal/Minimal-Werte vom 09.04.2020 - 22.04.2020

Sensor Min Max Avg
Temp
(Aussen-T/F)
-0.1 °C
15-04-2020  06:55:00
26.2 °C
17-04-2020  18:05:00
12.78 °C
Abs-Feuchte
(Aussen-T/F)
3.98 g/m*3
13-04-2020  21:00:00
12.18 g/m*3
18-04-2020  17:00:00
6.79 g/m*3
Windchill
(Aussen-T/F)
0.1 C
15-04-2020  06:00:00
25.85 C
17-04-2020  18:00:00
12.66 C

Die Daten stammen von einer Davis Vantage Pro 2 Wetter-Station und werden unter Linux mit der Software wview2wettercgi und aufbereitet. Alle Angaben erfolgen ohne Gewähr für ihre Vollständigkeit oder Richtigkeit.
Kontakt: Rainer Krienke krienke@uni-koblenz.de . Meine Webseiten an der Uni Koblenz oder privat.
Version: $Revision: 0.78 $